(129391) = 1319 T-2 = 2001 TA60

Discovered at Palomar on 1973-09-29 by C. J. van Houten, I. van Houten-Groeneveld, and T. Gehrels.

Orbit

Orbit type: Main Belt

Note: WebGL enabled browser required.

epoch2024-03-31.0
epoch JD2460400.5
perihelion date2023-01-31.31803
perihelion JD2459975.81803
argument of perihelion (°)236.90360
ascending node (°)198.33359
inclination (°)6.27880
eccentricity0.1355250
perihelion distance (AU)1.9877564
Tisserand w.r.t. Jupiter3.6
ΔV w.r.t. Earth (km/sec)8.9
semimajor axis (AU)2.2993798
mean anomaly (°)120.04708
mean daily motion (°/day)0.28267520
aphelion distance (AU)2.611
period (years)3.49
P-vector [x]0.25639887
P-vector [y]0.91926367
P-vector [z]0.29868702
Q-vector [x]-0.96595869
Q-vector [y]0.25469350
Q-vector [z]0.04533251
absolute magnitude16.38
phase slope0.15
uncertainty0
referenceMPEC 2024-F07
observations used1001
oppositions16
arc length (days)18441
first opposition used1973
last opposition used2024
residual rms (arc-secs)0.68
perturbers coarse indicatorM-v
perturbers precise indicator003Ek
first observation date used1973-09-19.0
last observation date used2024-03-16.0
computer nameMPCLINUX
JD of orbit computation2456909.102549
perihelion JD uncertainty (days)7.7073E-05
argument of perihelion uncertainty (°)4.3676E-05
ascending node uncertainty (°)3.7861E-05
inclination uncertainty (°)5.3404E-06
eccentricity uncertainty 4.0028E-08
perihelion distance uncertainty (AU)8.9831E-08
Minimum Orbit Intersection Distances (in AU)
for orbit epoch: 2460400.5, reference: E2024-GB3
Mercury1.68363
Venus1.27113
Earth1.01072
Mars0.47878
Jupiter2.64966
Saturn7.05026
Uranus16.1049
Neptune27.6904

Observations

1037 total observations over interval: 1973 09 19.19948 – 2024 03 16.572337
These data are available for download (format description).

Date (UT) J2000 RA J2000 Dec Magn Location Ref
1973 09 19.19948 00 29 05.19 +06 30 15.8   675 – Palomar Mountain MPS 16104
1973 09 19.25006 00 29 02.85 +06 29 50.2   675 – Palomar Mountain MPS 16104
1973 09 20.26458 00 28 14.89 +06 21 04.5   675 – Palomar Mountain MPS 16104
1973 09 24.36181 00 24 53.12 +05 44 21.3   675 – Palomar Mountain MPS 16104
1973 09 24.42847 00 24 49.70 +05 43 44.4   675 – Palomar Mountain MPS 16104
1973 09 25.25642 00 24 08.05 +05 36 01.8   675 – Palomar Mountain MPS 16104
1973 09 25.32031 00 24 04.68 +05 35 26.8   675 – Palomar Mountain MPS 16104
1973 09 29.25330 00 20 43.08 +04 58 02.8 19.3   675 – Palomar Mountain MPS 16104
1973 09 29.31806 00 20 39.48 +04 57 24.1   675 – Palomar Mountain MPS 16104
1973 09 30.21007 00 19 53.78 +04 48 45.3   675 – Palomar Mountain MPS 16104
1973 09 30.27431 00 19 50.31 +04 48 08.6   675 – Palomar Mountain MPS 16104
1973 10 04.28958 00 16 24.32 +04 08 51.3   675 – Palomar Mountain MPS 16104
1973 10 04.35208 00 16 20.89 +04 08 14.5   675 – Palomar Mountain MPS 16104
1973 10 05.31684 00 15 32.32 +03 58 48.4   675 – Palomar Mountain MPS 16104
1973 10 05.37917 00 15 29.07 +03 58 10.9   675 – Palomar Mountain MPS 16104
1999 01 14.29986 08 42 05.60 +06 32 42.1 18.5 R 699 – Lowell Observatory-LONEOS MPS 112275
1999 01 14.32024 08 42 04.47 +06 32 44.7   699 – Lowell Observatory-LONEOS MPS 112275
1999 01 14.34071 08 42 03.35 +06 32 49.1   699 – Lowell Observatory-LONEOS MPS 112275
2001 09 20.42310 02 00 23.03 +12 40 03.9 18.7   704 – Lincoln Laboratory ETS, New Mexico MPS 45548
2001 09 20.43717 02 00 22.77 +12 39 58.8 19.1   704 – Lincoln Laboratory ETS, New Mexico MPS 45548
2001 09 20.45124 02 00 22.42 +12 39 53.3 19.5   704 – Lincoln Laboratory ETS, New Mexico MPS 45548
2001 09 23.41110 01 59 20.75 +12 22 27.6 18.1   704 – Lincoln Laboratory ETS, New Mexico MPS 45548
2001 09 23.42538 01 59 20.35 +12 22 22.2 18.8   704 – Lincoln Laboratory ETS, New Mexico MPS 45548
2001 09 23.46854 01 59 19.22 +12 22 06.5 18.8   704 – Lincoln Laboratory ETS, New Mexico MPS 45548
2001 09 24.34232 01 58 58.15 +12 16 33.9 19.0   704 – Lincoln Laboratory ETS, New Mexico MPS 45548
2001 09 24.35694 01 58 57.71 +12 16 28.5 19.5   704 – Lincoln Laboratory ETS, New Mexico MPS 45548
2001 09 24.37156 01 58 57.31 +12 16 23.8 19.6   704 – Lincoln Laboratory ETS, New Mexico MPS 45548
2001 09 24.40081 01 58 56.55 +12 16 12.4 19.8   704 – Lincoln Laboratory ETS, New Mexico MPS 45548
2001 09 26.33694 01 58 04.34 +12 03 24.2 18.8   704 – Lincoln Laboratory ETS, New Mexico MPS 50431
2001 09 26.35163 01 58 03.90 +12 03 18.7 18.9   704 – Lincoln Laboratory ETS, New Mexico MPS 50431
2001 09 26.36621 01 58 03.41 +12 03 12.0 19.0   704 – Lincoln Laboratory ETS, New Mexico MPS 50431
2001 09 26.38080 01 58 02.97 +12 03 06.8 18.6   704 – Lincoln Laboratory ETS, New Mexico MPS 50431
2001 09 26.39540 01 58 02.56 +12 03 01.0 19.4   704 – Lincoln Laboratory ETS, New Mexico MPS 50431
2001 10 07.41715 01 51 12.56 +10 36 25.1 18.6   644 – Palomar Mountain/NEAT MPS 45548
2001 10 07.43787 01 51 11.58 +10 36 14.1 18.7   644 – Palomar Mountain/NEAT MPS 45548
2001 10 07.46172 01 51 10.46 +10 36 01.5 18.6   644 – Palomar Mountain/NEAT MPS 45548
2001 10 12.26285 01 47 24.73 +09 52 33.7 18.2 R 699 – Lowell Observatory-LONEOS MPS 45548
2001 10 12.28621 01 47 23.54 +09 52 21.7   699 – Lowell Observatory-LONEOS MPS 45548
2001 10 12.30964 01 47 22.30 +09 52 07.9   699 – Lowell Observatory-LONEOS MPS 45548
2001 10 12.33315 01 47 21.12 +09 51 54.1   699 – Lowell Observatory-LONEOS MPS 45548
2001 10 13.25050 01 46 35.75 +09 43 19.6 18.3   704 – Lincoln Laboratory ETS, New Mexico MPS 39455
2001 10 13.26614 01 46 34.91 +09 43 11.1 18.7   704 – Lincoln Laboratory ETS, New Mexico MPS 39455
2001 10 13.28190 01 46 34.07 +09 43 02.6 18.5   704 – Lincoln Laboratory ETS, New Mexico MPS 39455
2001 10 13.29757 01 46 33.17 +09 42 53.0 18.9   704 – Lincoln Laboratory ETS, New Mexico MPS 39455
2001 10 13.31345 01 46 32.46 +09 42 44.3 18.4   704 – Lincoln Laboratory ETS, New Mexico MPS 39455
2001 10 17.24883 01 43 11.36 +09 05 14.8 18.7   704 – Lincoln Laboratory ETS, New Mexico MPS 39455
2001 10 17.26485 01 43 10.50 +09 05 05.2 19.1   704 – Lincoln Laboratory ETS, New Mexico MPS 39455
2001 10 17.28083 01 43 09.71 +09 04 56.4 18.9   704 – Lincoln Laboratory ETS, New Mexico MPS 39455
2001 10 17.29681 01 43 08.77 +09 04 46.2 18.9   704 – Lincoln Laboratory ETS, New Mexico MPS 39455
2001 10 17.31315 01 43 07.86 +09 04 37.3 18.8   704 – Lincoln Laboratory ETS, New Mexico MPS 39455
2001 10 17.48864 01 42 58.33 +09 02 56.1 17.9   644 – Palomar Mountain/NEAT MPS 40780
2001 10 17.50981 01 42 57.21 +09 02 43.8 17.9   644 – Palomar Mountain/NEAT MPS 40780
2001 10 17.53385 01 42 55.94 +09 02 29.7 18.2   644 – Palomar Mountain/NEAT MPS 40780
2001 10 18.23878 01 42 19.76 +08 55 42.6 18.4   704 – Lincoln Laboratory ETS, New Mexico MPS 45548
2001 10 18.25605 01 42 18.79 +08 55 32.6 18.5   704 – Lincoln Laboratory ETS, New Mexico MPS 45548
2001 10 18.27248 01 42 17.88 +08 55 22.6 18.3   704 – Lincoln Laboratory ETS, New Mexico MPS 45548
2001 10 18.28888 01 42 17.04 +08 55 14.3 18.4   704 – Lincoln Laboratory ETS, New Mexico MPS 45548
2001 10 18.30510 01 42 16.09 +08 55 03.9 18.8   704 – Lincoln Laboratory ETS, New Mexico MPS 45548
2001 10 18.34327 01 42 14.08 +08 54 43.2 17.8   644 – Palomar Mountain/NEAT MPS 40780
2001 10 18.36349 01 42 12.97 +08 54 31.4 17.8   644 – Palomar Mountain/NEAT MPS 40780
2001 10 18.38793 01 42 11.61 +08 54 17.1 17.8   644 – Palomar Mountain/NEAT MPS 40780
2001 10 20.27065 01 40 33.20 +08 36 04.6 17.3   704 – Lincoln Laboratory ETS, New Mexico MPS 40780
2001 10 20.28708 01 40 32.31 +08 35 55.4 17.9   704 – Lincoln Laboratory ETS, New Mexico MPS 40780
2001 10 20.30351 01 40 31.32 +08 35 45.1 17.3   704 – Lincoln Laboratory ETS, New Mexico MPS 40780
2001 10 20.31994 01 40 30.45 +08 35 35.8 17.1   704 – Lincoln Laboratory ETS, New Mexico MPS 40780
2001 10 20.33639 01 40 29.55 +08 35 26.2 17.3   704 – Lincoln Laboratory ETS, New Mexico MPS 40780
2001 10 21.32319 01 39 37.85 +08 25 54.4 18.2   704 – Lincoln Laboratory ETS, New Mexico MPS 40780
2001 10 21.34033 01 39 36.88 +08 25 45.1 18.2   704 – Lincoln Laboratory ETS, New Mexico MPS 40780
2001 10 21.35735 01 39 35.99 +08 25 35.3 18.4   704 – Lincoln Laboratory ETS, New Mexico MPS 40780
2001 10 21.37340 01 39 35.07 +08 25 26.3 18.3   704 – Lincoln Laboratory ETS, New Mexico MPS 40780
2001 10 21.38953 01 39 34.22 +08 25 16.8 18.4   704 – Lincoln Laboratory ETS, New Mexico MPS 40780
2001 10 22.20621 01 38 51.80 +08 17 24.6 17.9   704 – Lincoln Laboratory ETS, New Mexico MPS 40780
2001 10 22.22265 01 38 50.90 +08 17 15.4 18.2   704 – Lincoln Laboratory ETS, New Mexico MPS 40780
2001 10 22.23909 01 38 49.99 +08 17 05.8 18.1   704 – Lincoln Laboratory ETS, New Mexico MPS 40780
2001 10 22.25558 01 38 49.09 +08 16 56.2 18.1   704 – Lincoln Laboratory ETS, New Mexico MPS 40780
2001 10 23.26478 01 37 56.29 +08 07 15.0 17.9   704 – Lincoln Laboratory ETS, New Mexico MPS 40780
2001 10 23.28118 01 37 55.38 +08 07 05.4 18.2   704 – Lincoln Laboratory ETS, New Mexico MPS 40780
2001 10 23.29758 01 37 54.48 +08 06 56.1 18.1   704 – Lincoln Laboratory ETS, New Mexico MPS 40780
2001 10 23.31400 01 37 53.58 +08 06 46.7 17.9   704 – Lincoln Laboratory ETS, New Mexico MPS 40780
2001 10 23.33041 01 37 52.70 +08 06 37.3 18.0   704 – Lincoln Laboratory ETS, New Mexico MPS 40780
2001 10 24.24921 01 37 05.05 +07 57 50.3 18.2   704 – Lincoln Laboratory ETS, New Mexico MPS 40780
2001 10 24.26574 01 37 04.17 +07 57 41.1 18.7   704 – Lincoln Laboratory ETS, New Mexico MPS 40780
2001 10 24.28228 01 37 03.25 +07 57 31.6 18.1   704 – Lincoln Laboratory ETS, New Mexico MPS 40780
2001 10 24.29882 01 37 02.35 +07 57 22.5 18.4   704 – Lincoln Laboratory ETS, New Mexico MPS 40780
2001 10 24.31537 01 37 01.46 +07 57 13.1 18.6   704 – Lincoln Laboratory ETS, New Mexico MPS 40780
2001 10 25.23550 01 36 14.10 +07 48 27.7 18.0   704 – Lincoln Laboratory ETS, New Mexico MPS 45548
2001 10 25.25225 01 36 13.22 +07 48 17.9 18.3   704 – Lincoln Laboratory ETS, New Mexico MPS 45548
